User: anonymous   Login
Location: ??
(35.5052°N, 139.7262°E)
Time: 02:55:41
(UTC+00:00)
Language:

Cosmos 1633 - Orbit

View from above orbital plane
View from above orbital plane
View from above satellite
View from above satellite

Ground track
Ground track

The orbit data is extracted from the following two-line orbital elements,

1 15592U 85020A   21270.34917906  .00003949  00000-0  12388-3 0  9998
2 15592  82.5401 188.4112 0013597  38.9317 321.2901 15.32632927  3107
Epoch (UTC): 27 September 2021 08:22:49
Eccentricity: 0.0013597
inclination: 82.5401°
perigee height: 458 km
apogee height: 477 km
right ascension of ascending node: 188.4112°
argument of perigee: 38.9317°
revolutions per day: 15.32632927
mean anomaly at epoch: 321.2901°
orbit number at epoch: 310

The dashed part of the orbit path shows where the satellite is in the earth's shadow,  

DLR